,

(GMT )
Claresholm

Weather History for CWDK - October, 2012

Change the Weather History Date:

Wednesday, October 3, 2012

  Actual Average Record
Temperature  
Mean Temperature 32 °F -  
Max Temperature 40 °F - - ()
Min Temperature 25 °F - - ()
Degree Days  
Heating Degree Days 32    
Moisture  
Dew Point 30 °F    
Average Humidity 83    
Maximum Humidity 97    
Minimum Humidity 49    
Precipitation  
Precipitation 0.02 in - - ()
Sea Level Pressure  
Sea Level Pressure 30.53 in    
Wind  
Wind Speed 12 mph ()    
Max Wind Speed 24 mph    
Max Gust Speed 32 mph    
T = Trace of Precipitation, MM = Missing Value Source: Averaged Metar Reports

Daily Weather History Graph

Daily Weather History Graph

Search for Another Location

Airport or City:

Trip Planner

Search our weather history database for the weather conditions in past years. The results will help you decide how hot, cold, wet, or windy it might be!

Date:

Astronomy

Oct. 03, 2012 Rise Set
Actual Time 7:38 AM MDT 7:07 PM MDT
Civil Twilight 7:06 AM MDT 7:39 PM MDT
Nautical Twilight 6:28 AM MDT 8:16 PM MDT
Astronomical Twilight 5:50 AM MDT 8:54 PM MDT
Moon 8:37 PM MDT (10/3) 11:29 AM MDT (10/3)
Length of Visible Light 12h 33m
Length of Day
11h 28m
Waning Gibbous, 88% of the Moon is Illuminated
Oct 3
Waning Gibbous
Oct 8
Last Quarter
Oct 15
New
Oct 21
First Quarter
Oct 29
Full

Hourly Weather History & Observations

Time (MDT) Temp. Windchill Dew Point Humidity Pressure Visibility Wind Dir Wind Speed Gust Speed Precip Events Conditions
12:00 AM 34 °F - 33 °F 96% 30.30 in - North 18.4 mph - -  
12:00 AM 34.0 °F 23.0 °F 33.3 °F 97% 30.30 in - North 18.4 mph 28.8 mph 0.04 in   Unknown
1:00 AM 34.2 °F 21.8 °F 33.4 °F 97% 30.33 in - NNW 24.2 mph 32.2 mph 0.02 in   Unknown
2:00 AM 34.5 °F 23.8 °F 33.4 °F 96% 30.37 in - North 18.4 mph 26.5 mph N/A   Unknown
3:00 AM 34.9 °F 24.9 °F 33.4 °F 94% 30.40 in - North 16.1 mph 21.9 mph N/A   Unknown
4:00 AM 35.1 °F 26.9 °F 33.6 °F 94% 30.43 in - NNW 11.5 mph - N/A   Unknown
5:00 AM 35.4 °F 27.8 °F 33.4 °F 92% 30.47 in - North 10.4 mph - N/A   Unknown
6:00 AM 35 °F - 33 °F 92% 30.51 in - NNW 11.5 mph - -  
6:00 AM 34.9 °F 26.6 °F 33.4 °F 94% 30.51 in - NNW 11.5 mph - N/A   Unknown
7:00 AM 34.9 °F 26.6 °F 33.6 °F 95% 30.54 in - North 11.5 mph 18.4 mph 0.01 in   Unknown
9:00 AM 34.3 °F 24.6 °F 31.8 °F 90% 30.57 in - North 15.0 mph 20.7 mph N/A   Unknown
10:00 AM 35.4 °F 26.0 °F 31.1 °F 84% 30.59 in - North 15.0 mph 21.9 mph N/A   Unknown
11:00 AM 35.4 °F 27.3 °F 30.6 °F 82% 30.61 in - NNW 11.5 mph - N/A   Unknown
12:00 PM 38 °F - 31 °F 66% 30.61 in - North 13.8 mph - -  
12:00 PM 37.9 °F 29.6 °F 30.6 °F 75% 30.61 in - North 13.8 mph - N/A   Unknown
1:00 PM 36.9 °F 27.8 °F 31.3 °F 80% 30.63 in - NNW 15.0 mph - N/A   Unknown
2:00 PM 38.1 °F 30.2 °F 28.6 °F 69% 30.62 in - North 12.7 mph 18.4 mph N/A   Unknown
3:00 PM 40.6 °F 34.3 °F 28.0 °F 61% 30.61 in - North 10.4 mph - N/A   Unknown
4:00 PM 37.2 °F 28.7 °F 30.6 °F 77% 30.62 in - NW 13.8 mph - N/A   Unknown
5:00 PM 38.8 °F 35.4 °F 27.0 °F 62% 30.61 in - NNW 4.6 mph - N/A   Unknown
6:00 PM 40 °F - 27 °F 49% 30.60 in - NE 3.5 mph - -  
6:00 PM 39.7 °F 37.6 °F 27.3 °F 61% 30.60 in - NE 3.5 mph - N/A   Unknown
7:00 PM 35.1 °F - 26.8 °F 72% 30.61 in - SSE 1.2 mph - N/A   Unknown
8:00 PM 30.7 °F - 27.3 °F 87% 30.62 in - West 2.3 mph - N/A   Unknown
10:00 PM 25.7 °F - 24.1 °F 94% 30.61 in - WSW 2.3 mph - N/A   Unknown
11:00 PM 26.8 °F - 25.3 °F 94% 30.59 in - North 1.2 mph - N/A   Unknown